• In Deutschland
  • Länderverzeichnis
  • Für 7 Tage
  • Wassertemperatur
  • Satellitenkarten
  • Wetterkarte
  • Widgets
  • user-avatar
    Anmelden

    Stündliche Wetter Newcastle

    Heute, 18 November, Samstag

    Zeit Temperatur Niederschläge Wind Luftdruck Luftfeuchtigkeit
    00:00 +19°C° 0 mm 5 m/S 762 mmHg 85%
    01:00 +19°C° 0 mm 5 m/S 762 mmHg 85%
    02:00 +19°C° 0,1 mm 5 m/S 762 mmHg 86%
    03:00 +17°C° 0,1 mm 5 m/S 762 mmHg 87%
    04:00 +17°C° 0 mm 5 m/S 762 mmHg 89%
    05:00 +19°C° 0,3 mm 5 m/S 763 mmHg 86%
    06:00 +20°C° 0,3 mm 5 m/S 763 mmHg 84%
    07:00 +20°C° 0,3 mm 5 m/S 763 mmHg 82%
    08:00 +20°C° 0,9 mm 5 m/S 763 mmHg 84%
    09:00 +21°C° 0,9 mm 5 m/S 763 mmHg 86%
    10:00 +21°C° 0,9 mm 6 m/S 763 mmHg 88%
    11:00 +21°C° 1,1 mm 6 m/S 763 mmHg 89%
    12:00 +21°C° 1,1 mm 6 m/S 763 mmHg 90%
    13:00 +20°C° 1,1 mm 6 m/S 763 mmHg 91%
    14:00 +20°C° 0,6 mm 6 m/S 763 mmHg 91%
    15:00 +20°C° 0,6 mm 5 m/S 763 mmHg 92%
    16:00 +19°C° 0,6 mm 5 m/S 763 mmHg 92%
    17:00 +19°C° 0,1 mm 5 m/S 763 mmHg 92%
    18:00 +19°C° 0,1 mm 5 m/S 763 mmHg 93%
    19:00 +18°C° 0,1 mm 4 m/S 764 mmHg 93%
    20:00 +18°C° 0 mm 4 m/S 764 mmHg 93%
    21:00 +17°C° 0 mm 4 m/S 764 mmHg 94%
    22:00 +17°C° 0 mm 4 m/S 764 mmHg 95%
    23:00 +17°C° 0,1 mm 4 m/S 764 mmHg 95%

    Morgen, 19 November, Sonntag

    Zeit Temperatur Niederschläge Wind Luftdruck Luftfeuchtigkeit
    00:00 +15°C° 0,1 mm 4 m/S 764 mmHg 96%
    01:00 +16°C° 0,1 mm 3 m/S 764 mmHg 96%
    02:00 +16°C° 0,2 mm 3 m/S 764 mmHg 96%
    03:00 +16°C° 0,2 mm 3 m/S 764 mmHg 96%
    04:00 +16°C° 0,2 mm 3 m/S 764 mmHg 97%
    05:00 +17°C° 0,2 mm 3 m/S 764 mmHg 94%
    06:00 +18°C° 0,2 mm 4 m/S 765 mmHg 91%
    07:00 +20°C° 0,2 mm 4 m/S 765 mmHg 88%
    08:00 +21°C° 0,2 mm 4 m/S 765 mmHg 81%
    09:00 +22°C° 0,2 mm 4 m/S 766 mmHg 74%
    10:00 +23°C° 0,2 mm 4 m/S 766 mmHg 67%
    11:00 +25°C° 0,1 mm 4 m/S 765 mmHg 61%
    12:00 +26°C° 0,1 mm 4 m/S 765 mmHg 55%
    13:00 +27°C° 0,1 mm 4 m/S 765 mmHg 49%
    14:00 +26°C° 0 mm 4 m/S 765 mmHg 50%
    15:00 +26°C° 0 mm 4 m/S 764 mmHg 51%
    16:00 +25°C° 0 mm 4 m/S 764 mmHg 52%
    17:00 +23°C° 0,1 mm 4 m/S 765 mmHg 62%
    18:00 +21°C° 0,1 mm 4 m/S 765 mmHg 72%
    19:00 +19°C° 0,1 mm 3 m/S 765 mmHg 83%
    20:00 +18°C° 0,2 mm 3 m/S 766 mmHg 87%
    21:00 +18°C° 0,2 mm 3 m/S 766 mmHg 91%
    22:00 +17°C° 0,2 mm 3 m/S 766 mmHg 95%
    23:00 +17°C° 0,1 mm 3 m/S 766 mmHg 95%

    übermorgen, 20 November, Montag

    Zeit Temperatur Niederschläge Wind Luftdruck Luftfeuchtigkeit
    00:00 +17°C° 0,1 mm 3 m/S 766 mmHg 96%
    01:00 +17°C° 0,1 mm 3 m/S 765 mmHg 96%
    02:00 +16°C° 0,1 mm 2 m/S 765 mmHg 96%
    03:00 +16°C° 0,1 mm 2 m/S 766 mmHg 95%
    04:00 +16°C° 0,1 mm 2 m/S 766 mmHg 95%
    05:00 +17°C° 0,1 mm 2 m/S 766 mmHg 92%
    06:00 +19°C° 0,1 mm 2 m/S 767 mmHg 89%
    07:00 +20°C° 0,1 mm 3 m/S 767 mmHg 85%
    08:00 +21°C° 0,1 mm 3 m/S 767 mmHg 75%
    09:00 +24°C° 0,1 mm 3 m/S 767 mmHg 64%
    10:00 +26°C° 0,1 mm 3 m/S 767 mmHg 53%
    11:00 +26°C° 0 mm 4 m/S 767 mmHg 51%
    12:00 +27°C° 0 mm 4 m/S 766 mmHg 48%
    13:00 +27°C° 0 mm 4 m/S 766 mmHg 46%
    14:00 +27°C° 0,1 mm 4 m/S 766 mmHg 50%
    15:00 +26°C° 0,1 mm 4 m/S 766 mmHg 55%
    16:00 +25°C° 0,1 mm 4 m/S 765 mmHg 59%
    17:00 +22°C° 0 mm 4 m/S 766 mmHg 68%
    18:00 +21°C° 0 mm 3 m/S 766 mmHg 78%
    19:00 +19°C° 0 mm 3 m/S 767 mmHg 87%
    20:00 +18°C° 0,1 mm 3 m/S 767 mmHg 90%
    21:00 +17°C° 0,1 mm 2 m/S 767 mmHg 92%
    22:00 +17°C° 0,1 mm 2 m/S 767 mmHg 95%
    23:00 +16°C° 0,2 mm 2 m/S 767 mmHg 95%

    21 November, Dienstag

    Zeit Temperatur Niederschläge Wind Luftdruck Luftfeuchtigkeit
    00:00 +16°C° 0,2 mm 2 m/S 766 mmHg 96%
    01:00 +16°C° 0,2 mm 2 m/S 766 mmHg 96%
    02:00 +16°C° 0,2 mm 2 m/S 766 mmHg 96%
    03:00 +17°C° 0,2 mm 2 m/S 766 mmHg 95%
    04:00 +17°C° 0,2 mm 2 m/S 766 mmHg 94%
    05:00 +18°C° 0,2 mm 3 m/S 766 mmHg 92%
    06:00 +19°C° 0,2 mm 3 m/S 766 mmHg 89%
    07:00 +20°C° 0,2 mm 3 m/S 767 mmHg 86%
    08:00 +22°C° 0,1 mm 3 m/S 766 mmHg 74%
    09:00 +23°C° 0,1 mm 4 m/S 766 mmHg 63%
    10:00 +26°C° 0,1 mm 4 m/S 766 mmHg 51%
    11:00 +26°C° 0 mm 4 m/S 766 mmHg 49%
    12:00 +27°C° 0 mm 4 m/S 765 mmHg 47%
    13:00 +27°C° 0 mm 4 m/S 765 mmHg 45%
    14:00 +27°C° 0 mm 4 m/S 765 mmHg 47%
    15:00 +26°C° 0 mm 4 m/S 764 mmHg 50%
    16:00 +25°C° 0 mm 4 m/S 764 mmHg 52%
    17:00 +22°C° 0 mm 4 m/S 765 mmHg 61%
    18:00 +20°C° 0 mm 3 m/S 765 mmHg 70%
    19:00 +19°C° 0 mm 3 m/S 765 mmHg 78%
    20:00 +18°C° 0,1 mm 3 m/S 765 mmHg 83%
    21:00 +17°C° 0,1 mm 3 m/S 765 mmHg 88%
    22:00 +16°C° 0,1 mm 3 m/S 765 mmHg 93%
    23:00 +16°C° 0,1 mm 3 m/S 765 mmHg 94%

    22 November, Mittwoch

    Zeit Temperatur Niederschläge Wind Luftdruck Luftfeuchtigkeit
    00:00 +16°C° 0,1 mm 3 m/S 764 mmHg 95%
    01:00 +15°C° 0,1 mm 2 m/S 764 mmHg 95%
    02:00 +15°C° 0 mm 2 m/S 764 mmHg 96%
    03:00 +15°C° 0 mm 1 m/S 764 mmHg 97%
    04:00 +14°C° 0 mm 1 m/S 764 mmHg 97%
    05:00 +16°C° 0 mm 1 m/S 764 mmHg 90%
    06:00 +19°C° 0 mm 1 m/S 764 mmHg 83%
    07:00 +21°C° 0 mm 1 m/S 765 mmHg 75%
    08:00 +23°C° 0,1 mm 2 m/S 764 mmHg 66%
    09:00 +25°C° 0,1 mm 2 m/S 764 mmHg 56%
    10:00 +26°C° 0,1 mm 2 m/S 764 mmHg 47%
    11:00 +27°C° 0,1 mm 3 m/S 763 mmHg 47%
    12:00 +27°C° 0,1 mm 4 m/S 763 mmHg 46%
    13:00 +27°C° 0,1 mm 4 m/S 762 mmHg 46%
    14:00 +27°C° 0 mm 4 m/S 762 mmHg 48%
    15:00 +26°C° 0 mm 4 m/S 762 mmHg 50%
    16:00 +26°C° 0 mm 4 m/S 762 mmHg 52%
    17:00 +23°C° 0 mm 4 m/S 762 mmHg 60%
    18:00 +21°C° 0 mm 4 m/S 763 mmHg 68%
    19:00 +19°C° 0 mm 3 m/S 763 mmHg 76%
    20:00 +18°C° 0 mm 3 m/S 763 mmHg 80%
    21:00 +17°C° 0 mm 3 m/S 763 mmHg 84%
    22:00 +16°C° 0 mm 3 m/S 763 mmHg 88%
    23:00 +16°C° 0 mm 2 m/S 763 mmHg 91%

    23 November, Donnerstag

    Zeit Temperatur Niederschläge Wind Luftdruck Luftfeuchtigkeit
    00:00 +15°C° 0 mm 2 m/S 763 mmHg 93%
    01:00 +15°C° 0 mm 1 m/S 762 mmHg 96%
    02:00 +14°C° 0 mm 1 m/S 762 mmHg 96%
    03:00 +14°C° 0 mm 1 m/S 762 mmHg 96%
    04:00 +14°C° 0 mm 1 m/S 762 mmHg 97%
    05:00 +16°C° 0 mm 1 m/S 762 mmHg 88%
    06:00 +19°C° 0 mm 1 m/S 763 mmHg 79%
    07:00 +22°C° 0 mm 1 m/S 763 mmHg 71%
    08:00 +23°C° 0 mm 1 m/S 763 mmHg 62%
    09:00 +25°C° 0 mm 1 m/S 763 mmHg 52%
    10:00 +27°C° 0 mm 2 m/S 763 mmHg 43%
    11:00 +28°C° 0 mm 2 m/S 762 mmHg 42%
    12:00 +28°C° 0 mm 3 m/S 762 mmHg 40%
    13:00 +29°C° 0 mm 3 m/S 761 mmHg 38%
    14:00 +28°C° 0 mm 4 m/S 761 mmHg 41%
    15:00 +28°C° 0 mm 4 m/S 761 mmHg 44%
    16:00 +27°C° 0 mm 4 m/S 761 mmHg 47%
    17:00 +25°C° 0 mm 4 m/S 761 mmHg 56%
    18:00 +22°C° 0 mm 4 m/S 761 mmHg 65%
    19:00 +20°C° 0 mm 4 m/S 762 mmHg 74%
    20:00 +19°C° 0 mm 4 m/S 762 mmHg 79%
    21:00 +18°C° 0 mm 3 m/S 762 mmHg 85%
    22:00 +17°C° 0 mm 3 m/S 763 mmHg 90%
    23:00 +17°C° 0 mm 3 m/S 762 mmHg 92%
    Mehr zeigen